Weather History for Houston Intercontinental, TX

Change the Weather History Date:

Sunday, October 7, 2012

  Actual Average Record
Temperature  
Mean Temperature 60 °F -  
Max Temperature 68 °F 80 °F 90 °F (2007)
Min Temperature 53 °F 61 °F 48 °F (2000)
Degree Days  
Heating Degree Days 4    
Growing Degree Days 10 (Base 50)    
Moisture  
Dew Point 48 °F    
Average Humidity 67    
Maximum Humidity 83    
Minimum Humidity 45    
Precipitation  
Precipitation 0.00 in - - ()
Sea Level Pressure  
Sea Level Pressure 30.14 in    
Wind  
Wind Speed 13 mph (North)    
Max Wind Speed 17 mph    
Max Gust Speed 23 mph    
Visibility 10 miles    
Events      
Averages and records for this station are not official NWS values.
T = Trace of Precipitation, MM = Missing Value Source: NWS Daily Summary

Daily Weather History Graph

Daily Weather History Graph

Search for Another Location

Airport:

Trip Planner

Search our weather history database for the weather conditions in past years. The results will help you decide how hot, cold, wet, or windy it might be!

Date:

Astronomy

Oct. 07, 2012 Rise Set
Actual Time 7:18 AM CDT 6:59 PM CDT
Civil Twilight 6:54 AM CDT 7:22 PM CDT
Nautical Twilight 6:26 AM CDT 7:50 PM CDT
Astronomical Twilight 5:59 AM CDT 8:18 PM CDT
Moon No Moon Rise 1:39 PM CDT (10/7)
Length of Visible Light 12h 28m
Length of Day
11h 40m
Waning Gibbous, 56% of the Moon is Illuminated
Oct 7
Waning Gibbous
Oct 8
Last Quarter
Oct 15
New
Oct 21
First Quarter
Oct 29
Full

Hourly Weather History & Observations

Time (CDT) Temp. Dew Point Humidity Pressure Visibility Wind Dir Wind Speed Gust Speed Precip Events Conditions
12:53 AM 61.0 °F 55.0 °F 81% 30.09 in 10.0 mi NNE 12.7 mph - N/A   Overcast
1:30 AM 60.8 °F 53.6 °F 77% 30.10 in 10.0 mi NNE 15.0 mph - N/A   Overcast
1:53 AM 59.0 °F 54.0 °F 83% 30.11 in 10.0 mi North 16.1 mph - N/A   Overcast
2:53 AM 57.9 °F 52.0 °F 81% 30.12 in 10.0 mi NNE 17.3 mph - N/A   Overcast
3:53 AM 55.9 °F 50.0 °F 80% 30.13 in 10.0 mi North 17.3 mph - N/A   Overcast
4:05 AM 55.4 °F 50.0 °F 82% 30.13 in 10.0 mi North 13.8 mph - N/A   Overcast
4:53 AM 55.9 °F 48.9 °F 77% 30.14 in 10.0 mi NNE 10.4 mph - 0.00 in   Overcast
5:53 AM 55.0 °F 48.0 °F 77% 30.15 in 10.0 mi North 12.7 mph - N/A   Overcast
6:53 AM 54.0 °F 46.9 °F 77% 30.16 in 10.0 mi North 12.7 mph - N/A   Overcast
7:13 AM 53.6 °F 46.4 °F 77% 30.17 in 10.0 mi North 16.1 mph - N/A   Overcast
7:53 AM 54.0 °F 46.0 °F 75% 30.18 in 10.0 mi NNE 13.8 mph 23.0 mph N/A   Overcast
8:53 AM 54.0 °F 45.0 °F 72% 30.20 in 10.0 mi NNE 15.0 mph - N/A   Overcast
9:53 AM 55.0 °F 44.1 °F 67% 30.21 in 10.0 mi NNE 13.8 mph - N/A   Overcast
10:53 AM 57.9 °F 46.0 °F 65% 30.20 in 10.0 mi NNE 16.1 mph - N/A   Overcast
11:53 AM 61.0 °F 46.0 °F 58% 30.18 in 10.0 mi NNE 13.8 mph 19.6 mph N/A   Overcast
12:53 PM 63.0 °F 46.9 °F 56% 30.15 in 10.0 mi NNE 12.7 mph 18.4 mph N/A   Overcast
1:53 PM 66.0 °F 48.9 °F 54% 30.13 in 10.0 mi NNE 9.2 mph - N/A   Mostly Cloudy
2:53 PM 66.9 °F 48.9 °F 52% 30.11 in 10.0 mi North 9.2 mph - N/A   Overcast
3:53 PM 66.9 °F 48.9 °F 52% 30.10 in 10.0 mi North 11.5 mph - N/A   Mostly Cloudy
4:53 PM 64.9 °F 48.9 °F 56% 30.10 in 10.0 mi North 11.5 mph 21.9 mph N/A   Mostly Cloudy
5:27 PM 62.6 °F 48.2 °F 59% 30.09 in 10.0 mi North 12.7 mph - N/A   Mostly Cloudy
5:53 PM 63.0 °F 48.0 °F 58% 30.10 in 10.0 mi North 11.5 mph - N/A   Mostly Cloudy
6:53 PM 62.1 °F 48.0 °F 60% 30.12 in 10.0 mi North 10.4 mph - N/A   Mostly Cloudy
7:53 PM 62.1 °F 48.9 °F 62% 30.13 in 10.0 mi North 8.1 mph - N/A   Overcast
8:53 PM 61.0 °F 48.0 °F 62% 30.16 in 10.0 mi North 11.5 mph - N/A   Mostly Cloudy
9:45 PM 59.0 °F 46.4 °F 63% 30.18 in 10.0 mi NNE 11.5 mph - N/A   Overcast
9:53 PM 59.0 °F 46.9 °F 64% 30.18 in 10.0 mi North 13.8 mph - N/A   Overcast
10:36 PM 57.2 °F 46.4 °F 67% 30.18 in 10.0 mi North 10.4 mph - N/A   Overcast
10:53 PM 57.9 °F 46.9 °F 67% 30.18 in 10.0 mi North 11.5 mph - N/A   Overcast
11:53 PM 57.9 °F 46.9 °F 67% 30.18 in 10.0 mi North 9.2 mph - N/A   Overcast